Weather History for Kununurra, WE

Change the Weather History Date:

Saturday, December 7, 2013

  Actual Average Record
Temperature  
Mean Temperature 90 °F -  
Max Temperature 103 °F - - ()
Min Temperature 76 °F - - ()
Cooling Degree Days 24    
Growing Degree Days 40 (Base 50)    
Moisture  
Dew Point 70 °F    
Average Humidity 58    
Maximum Humidity 94    
Minimum Humidity 21    
Precipitation  
Precipitation 0.00 in - - ()
Sea Level Pressure  
Sea Level Pressure 29.79 in    
Wind  
Wind Speed 6 mph ()    
Max Wind Speed 14 mph    
Max Gust Speed -    
Visibility 6.2 miles    
Events      
T = Trace of Precipitation, MM = Missing Value Source: Averaged Metar Reports

Daily Weather History Graph

Daily Weather History Graph

Search for Another Location

Airport:

Trip Planner

Search our weather history database for the weather conditions in past years. The results will help you decide how hot, cold, wet, or windy it might be!

Date:

Astronomy

Dec. 07, 2013 Rise Set
Actual Time 4:45 AM AWST 5:47 PM AWST
Civil Twilight 4:22 AM AWST 6:11 PM AWST
Nautical Twilight 3:54 AM AWST 6:39 PM AWST
Astronomical Twilight 3:25 AM AWST 7:07 PM AWST
Moon 8:55 AM AWST (12/7) 9:49 PM AWST (12/7)
Length of Visible Light 13h 49m
Length of Day
13h 01m
Waxing Crescent, 23% of the Moon is Illuminated
Dec 7
Waxing Crescent
Dec 9
First Quarter
Dec 17
Full
Dec 25
Last Quarter
Jan 1
New

Hourly Weather History & Observations

Time (AWST) Temp. Heat Index Dew Point Humidity Pressure Visibility Wind Dir Wind Speed Gust Speed Precip Events Conditions
12:00 AM 80 °F - 72 °F 70% 29.80 in - WSW 10.4 mph - -  
12:00 AM 80.6 °F 84.6 °F 71.6 °F 74% 29.80 in 6.2 mi WSW 10.4 mph - N/A   Unknown
12:30 AM 80.6 °F 85.4 °F 73.4 °F 79% 29.80 in 6.2 mi WSW 9.2 mph - N/A   Unknown
1:00 AM 80.6 °F 85.4 °F 73.4 °F 79% 29.80 in 6.2 mi WSW 8.1 mph - N/A   Scattered Clouds
1:30 AM 80.6 °F 85.4 °F 73.4 °F 79% 29.80 in 6.2 mi SW 6.9 mph - N/A   Overcast
2:00 AM 79 °F - 73 °F 78% 29.79 in - SW 4.6 mph - -  
2:00 AM 78.8 °F - 73.4 °F 83% 29.80 in 6.2 mi SW 4.6 mph - N/A   Scattered Clouds
2:30 AM 78.8 °F - 73.4 °F 83% 29.80 in 6.2 mi SW 3.5 mph - N/A   Scattered Clouds
3:00 AM 78 °F - 74 °F 83% 29.79 in - Calm Calm - -  
3:00 AM 78.8 °F - 73.4 °F 83% 29.80 in 6.2 mi Calm Calm - N/A   Unknown
3:30 AM 77.0 °F - 73.4 °F 89% 29.80 in 6.2 mi SW 4.6 mph - N/A   Unknown
4:00 AM 77.0 °F - 75.2 °F 94% 29.80 in 6.2 mi SSW 3.5 mph - N/A   Unknown
4:30 AM 77.0 °F - 75.2 °F 94% 29.80 in 6.2 mi Calm Calm - N/A   Unknown
5:00 AM 76 °F - 74 °F 93% 29.81 in - Calm Calm - -  
5:00 AM 77.0 °F - 75.2 °F 94% 29.80 in 6.2 mi Calm Calm - N/A   Unknown
5:30 AM 78.8 °F - 73.4 °F 83% 29.80 in 6.2 mi WSW 4.6 mph - N/A   Unknown
6:00 AM 82 °F - 75 °F 73% 29.82 in - SW 1.2 mph - -  
6:00 AM 82.4 °F 89.5 °F 75.2 °F 79% 29.83 in 6.2 mi SW 1.2 mph - N/A   Unknown
6:30 AM 84.2 °F 92.3 °F 75.2 °F 74% 29.83 in 6.2 mi SSW 3.5 mph - N/A   Unknown
7:00 AM 86.0 °F 93.4 °F 73.4 °F 66% 29.83 in 6.2 mi SW 1.2 mph - N/A   Unknown
7:30 AM 87.8 °F 95.6 °F 73.4 °F 62% 29.83 in 6.2 mi South 4.6 mph - N/A   Unknown
8:00 AM 90 °F - 72 °F 46% 29.84 in - SE 5.8 mph - -  
8:00 AM 89.6 °F 96.2 °F 71.6 °F 55% 29.83 in 6.2 mi SE 5.8 mph - N/A   Unknown
8:30 AM 91.4 °F 98.4 °F 71.6 °F 52% 29.83 in 6.2 mi ESE 5.8 mph - N/A   Unknown
9:00 AM 93 °F - 67 °F 33% 29.84 in - East 10.4 mph - -  
9:00 AM 93.2 °F 96.2 °F 66.2 °F 41% 29.83 in 6.2 mi East 10.4 mph - N/A   Scattered Clouds
9:30 AM 95.0 °F 99.5 °F 68.0 °F 41% 29.83 in 6.2 mi East 5.8 mph - N/A   Scattered Clouds
10:00 AM 95.0 °F 97.0 °F 64.4 °F 36% 29.83 in 6.2 mi ENE 9.2 mph - N/A   Mostly Cloudy
10:30 AM 96.8 °F 100.7 °F 66.2 °F 37% 29.80 in 6.2 mi East 12.7 mph - N/A   Scattered Clouds
11:00 AM 99 °F - 66 °F 24% 29.81 in - ENE 12.7 mph - -  
11:00 AM 98.6 °F 102.8 °F 66.2 °F 35% 29.80 in 6.2 mi ENE 12.7 mph - N/A   Unknown
11:30 AM 98.6 °F 104.1 °F 68.0 °F 37% 29.80 in 6.2 mi SE 6.9 mph - N/A   Scattered Clouds
12:00 PM 96 °F - 67 °F 29% 29.78 in - NE 6.9 mph - -   Overcast
12:00 PM 96.8 °F 100.7 °F 66.2 °F 37% 29.77 in 6.2 mi NE 6.9 mph - N/A   Mostly Cloudy
12:30 PM 98.6 °F 101.0 °F 64.4 °F 32% 29.77 in 6.2 mi East 8.1 mph - N/A   Scattered Clouds
1:00 PM 98.6 °F 102.8 °F 66.2 °F 35% 29.74 in 6.2 mi NE 9.2 mph - N/A   Scattered Clouds
1:30 PM 100.4 °F 104.9 °F 66.2 °F 33% 29.74 in 6.2 mi NNE 6.9 mph - N/A   Scattered Clouds
2:00 PM 99 °F - 62 °F 21% 29.73 in - ENE 9.2 mph - -  
2:00 PM 98.6 °F 100.0 °F 62.6 °F 30% 29.71 in 6.2 mi ENE 9.2 mph - N/A   Scattered Clouds
2:30 PM 96.8 °F 101.8 °F 68.0 °F 39% 29.71 in 6.2 mi SE 13.8 mph - N/A   Mostly Cloudy
3:00 PM 97 °F - 68 °F 30% 29.71 in - South 9.2 mph - -  
3:00 PM 96.8 °F 101.8 °F 68.0 °F 39% 29.71 in 6.2 mi South 9.2 mph - N/A   Scattered Clouds
4:00 PM 98.6 °F 100.0 °F 62.6 °F 30% 29.71 in 6.2 mi NNE 8.1 mph - N/A   Scattered Clouds
4:30 PM 96.8 °F 100.7 °F 66.2 °F 37% 29.71 in 6.2 mi North 8.1 mph - N/A   Overcast
5:00 PM 93 °F - 69 °F 35% 29.73 in - North 9.2 mph - -  
5:00 PM 93.2 °F 97.7 °F 68.0 °F 44% 29.74 in 6.2 mi North 9.2 mph - N/A   Unknown
5:30 PM 91.4 °F 96.8 °F 69.8 °F 49% 29.74 in 6.2 mi North 9.2 mph - N/A   Scattered Clouds
6:00 PM 90 °F - 70 °F 42% 29.76 in - WNW 6.9 mph - -  
6:00 PM 89.6 °F 94.7 °F 69.8 °F 52% 29.77 in 6.2 mi WNW 6.9 mph - N/A   Scattered Clouds
6:30 PM 87.8 °F 92.6 °F 69.8 °F 55% 29.77 in 6.2 mi NNW 5.8 mph - N/A   Scattered Clouds
7:00 PM 87.8 °F 91.4 °F 68.0 °F 52% 29.77 in 6.2 mi WNW 6.9 mph - N/A   Scattered Clouds
7:30 PM 87.8 °F 92.6 °F 69.8 °F 55% 29.80 in 6.2 mi West 4.6 mph - N/A   Unknown
8:00 PM 85 °F - 72 °F 56% 29.81 in - West 1.2 mph - -  
8:00 PM 84.2 °F 89.6 °F 71.6 °F 66% 29.80 in 6.2 mi West 1.2 mph - N/A   Unknown
8:30 PM 84.2 °F 89.6 °F 71.6 °F 66% 29.80 in 6.2 mi North 3.5 mph - N/A   Unknown
9:00 PM 83 °F - 72 °F 62% 29.83 in - North 4.6 mph - -  
9:00 PM 82.4 °F 87.2 °F 71.6 °F 70% 29.83 in 6.2 mi North 4.6 mph - N/A   Unknown
9:30 PM 82.4 °F 87.2 °F 71.6 °F 70% 29.83 in 6.2 mi NNW 5.8 mph - N/A   Unknown
10:00 PM 82.4 °F 88.2 °F 73.4 °F 74% 29.83 in 6.2 mi NW 3.5 mph - N/A   Unknown
10:30 PM 80.6 °F 85.4 °F 73.4 °F 79% 29.83 in 6.2 mi NNW 4.6 mph - N/A   Unknown
11:00 PM 82 °F - 73 °F 67% 29.82 in - Calm Calm - -  
11:00 PM 82.4 °F 88.2 °F 73.4 °F 74% 29.80 in 6.2 mi Calm Calm - N/A   Unknown
11:30 PM 80.6 °F 85.4 °F 73.4 °F 79% 29.80 in 6.2 mi North 5.8 mph - N/A   Unknown